Weather Roundup
Issued by NWS

Home | Current Version | Previous Version | Graphics & Text | Print | Product List | Glossary Off
Versions: 1 2 3 4 5 6 7 8 9 10 11 12 13 14 15 16 17 18 19 20 21 22 23 24 25 26 27 28 29 30 31 32 33 34 35 36 37 38 39 40 41 42 43 44 45 46 47 48 49 50

000
NZUS93 KARX 300210
HRRWXR

CURRENT HOURLY OBSERVATIONS ACROSS
MUCH OF THE UPPER MISSISSIPPI VALLEY
NATIONAL WEATHER SERVICE LA CROSSE WI
900 PM CDT MON JUN 29 2015


...SOUTHEAST MINNESOTA...


CITY           SKY/WX    TMP DP  RH WIND       PRES   REMARKS
ROCHESTER      LGT RAIN  61  59  93 S10       29.80F FOG
ROCHESTER/MAYO MOCLDY    61  61 100 S10G22    29.81F
WINONA         CLOUDY    63  59  88 CALM      29.77F
AUSTIN         MOCLDY    68  59  73 E13G24    29.86R
ALBERT LEA     PTCLDY    73  64  73 CALM      29.83S
DODGE CENTER   CLOUDY    64  57  77 SE8       29.84F
PRESTON        TSTM      60  58  92 S7        29.86S
OWATONNA       MOCLDY    68  55  64 SE9       29.83S
FARIBAULT      MOCLDY    70  59  68 SE7       29.82S
$$

...ELSEWHERE IN MINNESOTA...


CITY           SKY/WX    TMP DP  RH WIND       PRES   REMARKS
MINNEAPOLIS    LGT RAIN  67  63  87 SW7       29.80S FOG
INTNL FALLS    PTCLDY    65  56  72 NW3       29.86R
DULUTH         PTCLDY    69  58  67 N6        29.82R
RED WING       CLOUDY    63  61  94 CALM      29.78F
REDWOOD FALLS  CLEAR     74  63  68 NW8       29.84R
MANKATO        CLEAR     73  63  68 W9        29.81F
WORTHINGTON    CLEAR     70  61  73 W7        29.89S
FAIRMONT       CLEAR     72  59  64 W7        29.85R
$$

...SOUTHWEST WISCONSIN...


CITY           SKY/WX    TMP DP  RH WIND       PRES   REMARKS
LA CROSSE      LGT RAIN  65  62  90 SW8       29.79S
PRAIRIE DU CHI LGT RAIN  63  61  94 S3        29.80F
BOSCOBEL       RAIN      64  61  90 SE7       29.76F FOG
LONE ROCK      LGT RAIN  63  61  93 S8        29.78F
PLATTEVILLE    CLOUDY    67  62  85 N14G23    29.84R
FORT MC COY    CLOUDY    61  59  94 CALM      29.78F
CAMP DOUGLAS   CLOUDY    61  61 100 E2        29.76F
VIROQUA        FAIR      62  62 100 CALM      29.79F
WIS DELLS      CLOUDY    61  59  91 S5        29.77F
$$

...ELSEWHERE IN WISCONSIN...


CITY           SKY/WX    TMP DP  RH WIND       PRES   REMARKS
MILWAUKEE      PTCLDY    65  60  84 SE7       29.78F
MADISON        MOCLDY    65  58  78 W5        29.79S
GREEN BAY      CLOUDY    68  65  90 CALM      29.75F
EAU CLAIRE     CLOUDY    61  58  90 CALM      29.78R FOG
BLACK RVR FLS  FAIR      61  61 100 CALM      29.77F FOG
MEDFORD        CLOUDY    58  58  97 CALM      29.80S FOG
WAUSAU         CLOUDY    62  59  90 W6        29.77S
WIS RAPIDS     CLOUDY    62  58  86 E3        29.79R
MARSHFIELD     CLOUDY    61  56  83 N5        29.79R
RICE LAKE      PTCLDY    63  60  90 CALM      29.81S
$$

...NORTHEAST IOWA...


CITY           SKY/WX    TMP DP  RH WIND       PRES   REMARKS
DECORAH          N/A    N/A N/A N/A MISG        N/A
MASON CITY     CLEAR     71  64  78 W6        29.85S
CHARLES CITY   PTCLDY    68  59  73 NE9G16    29.85R
OELWEIN        LGT RAIN  66  63  88 NE14G23   29.84R
$$

...ELSEWHERE IN IOWA...


CITY           SKY/WX    TMP DP  RH WIND       PRES   REMARKS
DES MOINES     CLOUDY    76  64  66 CALM      29.86S
IOWA CITY      PTCLDY    72  67  84 W5        29.82S
FORT DODGE     CLEAR     70  63  78 SW3       29.87S
$$

...NORTHERN ILLINOIS...


CITY           SKY/WX    TMP DP  RH WIND       PRES   REMARKS
CHICAGO-OHARE  PTCLDY    68  65  90 SW3       29.79S
CHICAGO-MIDWAY PTCLDY    69  65  86 SW6       29.79S
MOLINE         CLOUDY    70  62  76 SW8       29.80F
ROCKFORD       MOCLDY    68  65  90 CALM      29.80F
PEORIA         PTCLDY    75  66  73 W3        29.81F
$$

NOTE: "FAIR" INDICATES FEW OR NO CLOUDS BELOW 12,000 FEET WITH NO
SIGNIFICANT WEATHER AND/OR OBSTRUCTIONS TO VISIBILITY. WIND
SPEEDS ARE IN MILES-PER-HOUR.



USA.gov is the U.S. government's official web portal to all federal, state and local government web resources and services.